Mojave, CA

2:12 AM PST on December 08, 2019 (GMT -0800)
Mojave

Weather History for KMHV - May, 2019

Change the Weather History Date:

Saturday, May 4, 2019

  Actual Average Record
Temperature  
Mean Temperature 72 °F -  
Max Temperature 84 °F 78 °F 93 °F (2017)
Min Temperature 60 °F 50 °F 38 °F (1975)
Cooling Degree Days 7    
Growing Degree Days 22 (Base 50)    
Moisture  
Dew Point 28 °F    
Average Humidity 21    
Maximum Humidity 34    
Minimum Humidity 10    
Precipitation  
Precipitation 0.00 in - - ()
Sea Level Pressure  
Sea Level Pressure 29.85 in    
Wind  
Wind Speed 13 mph (WNW)    
Max Wind Speed 22 mph    
Max Gust Speed 28 mph    
Visibility 10 miles    
Events      
Averages and records for this station are not official NWS values.
T = Trace of Precipitation, MM = Missing Value Source: NWS Daily Summary

Daily Weather History Graph

Daily Weather History Graph

Search for Another Location

Airport or City:

Astronomy

May. 04, 2019 Rise Set
Actual Time 5:58 AM PDT 7:40 PM PDT
Civil Twilight 5:31 AM PDT 8:07 PM PDT
Nautical Twilight 4:58 AM PDT 8:40 PM PDT
Astronomical Twilight 4:23 AM PDT 9:15 PM PDT
Moon 6:08 AM PDT (5/4) 7:37 PM PDT (5/4)
Length of Visible Light 14h 36m
Length of Day
13h 41m
Waning Crescent, 0% of the Moon is Illuminated
May 4
Waning Crescent
May 4
New
May 11
First Quarter
May 18
Full
May 26
Last Quarter

Hourly Weather History & Observations

Time (PDT) Temp. Dew Point Humidity Pressure Visibility Wind Dir Wind Speed Gust Speed Precip Events Conditions
12:00 AM 66.2 °F 24.8 °F 21% 29.91 in 10.0 mi NW 16.1 mph 24.2 mph N/A   Clear
12:20 AM 66.2 °F 23.0 °F 19% 29.91 in 10.0 mi NNW 13.8 mph - N/A   Partly Cloudy
12:40 AM 66.2 °F 24.8 °F 21% 29.90 in 10.0 mi NW 18.4 mph 26.5 mph N/A   Clear
1:00 AM 66.2 °F 23.0 °F 19% 29.90 in 10.0 mi NW 16.1 mph 26.5 mph N/A   Clear
1:20 AM 66.2 °F 21.2 °F 18% 29.90 in 10.0 mi NW 16.1 mph 25.3 mph N/A   Clear
1:40 AM 66.2 °F 24.8 °F 21% 29.89 in 10.0 mi NW 16.1 mph 24.2 mph N/A   Clear
2:20 AM 64.4 °F 28.4 °F 26% 29.88 in 10.0 mi NW 19.6 mph 26.5 mph N/A   Clear
2:40 AM 64.4 °F 30.2 °F 28% 29.88 in 10.0 mi WNW 18.4 mph 26.5 mph N/A   Clear
3:00 AM 64.4 °F 30.2 °F 28% 29.88 in 10.0 mi NW 18.4 mph - N/A   Clear
3:20 AM 64.4 °F 32.0 °F 30% 29.88 in 10.0 mi NW 17.3 mph - N/A   Clear
3:40 AM 62.6 °F 33.8 °F 34% 29.88 in 10.0 mi NW 12.7 mph 19.6 mph N/A   Clear
4:00 AM 62.6 °F 30.2 °F 30% 29.88 in 10.0 mi NNE 5.8 mph 15.0 mph N/A   Clear
4:20 AM 62.6 °F 32.0 °F 32% 29.88 in 10.0 mi North 8.1 mph - N/A   Clear
4:40 AM 60.8 °F 28.4 °F 29% 29.88 in 10.0 mi Calm Calm - N/A   Clear
5:00 AM 62.6 °F 32.0 °F 32% 29.88 in 10.0 mi Variable 3.5 mph - N/A   Partly Cloudy
5:20 AM 62.6 °F 32.0 °F 32% 29.88 in 10.0 mi Calm Calm - N/A   Clear
5:40 AM 60.8 °F 32.0 °F 34% 29.88 in 10.0 mi Calm Calm - N/A   Clear
6:00 AM 60.8 °F 32.0 °F 34% 29.88 in 10.0 mi North 3.5 mph - N/A   Clear
6:20 AM 60.8 °F 32.0 °F 34% 29.89 in 10.0 mi NNW 4.6 mph - N/A   Clear
6:40 AM 62.6 °F 28.4 °F 27% 29.89 in 10.0 mi North 3.5 mph - N/A   Clear
7:00 AM 60.8 °F 26.6 °F 27% 29.89 in 10.0 mi ENE 4.6 mph - N/A   Clear
7:20 AM 60.8 °F 28.4 °F 29% 29.90 in 10.0 mi NE 4.6 mph - N/A   Unknown
7:40 AM - - N/A% - - North - - N/A   Unknown
8:00 AM - - N/A% - - North - - N/A   Unknown
8:20 AM - - N/A% - - North - - N/A   Unknown
8:40 AM - - N/A% - - North - - N/A   Unknown
9:00 AM - - N/A% - - North - - N/A   Unknown
9:20 AM - - N/A% - - North - - N/A   Unknown
9:40 AM - - N/A% - - North - - N/A   Unknown
10:00 AM - - N/A% - - North - - N/A   Unknown
10:20 AM - - N/A% - - North - - N/A   Unknown
10:40 AM - - N/A% - - North - - N/A   Unknown
11:00 AM - - N/A% - - North - - N/A   Unknown
11:20 AM - - N/A% - - North - - N/A   Unknown
11:40 AM - - N/A% - - North - - N/A   Unknown
12:00 PM 80.6 °F 23.0 °F 12% 29.88 in - West 8.1 mph - N/A   Unknown
12:20 PM 80.6 °F 21.2 °F 11% 29.87 in 10.0 mi WSW 8.1 mph - N/A   Unknown
12:40 PM 80.6 °F 19.4 °F 10% 29.86 in 10.0 mi WSW 15.0 mph - N/A   Clear
1:00 PM 80.6 °F 19.4 °F 10% 29.86 in 10.0 mi West 10.4 mph - N/A   Clear
1:20 PM 82.4 °F 24.8 °F 12% 29.85 in 10.0 mi WSW 15.0 mph - N/A   Clear
1:40 PM 82.4 °F 24.8 °F 12% 29.84 in 10.0 mi Variable 6.9 mph 17.3 mph N/A   Clear
2:00 PM 82.4 °F 26.6 °F 13% 29.83 in 10.0 mi West 12.7 mph 19.6 mph N/A   Clear
2:20 PM 82.4 °F 26.6 °F 13% 29.83 in 10.0 mi WNW 12.7 mph 19.6 mph N/A   Clear
2:40 PM 82.4 °F 26.6 °F 13% 29.83 in 10.0 mi West 13.8 mph 19.6 mph N/A   Clear
3:00 PM 82.4 °F 26.6 °F 13% 29.82 in 10.0 mi WNW 15.0 mph - N/A   Unknown
3:20 PM 84.2 °F 23.0 °F 11% 29.82 in 10.0 mi WNW 17.3 mph - N/A   Clear
3:40 PM 82.4 °F 24.8 °F 12% 29.81 in 10.0 mi NW 18.4 mph - N/A   Clear
4:00 PM 82.4 °F 26.6 °F 13% 29.81 in 10.0 mi West 21.9 mph - N/A   Clear
4:20 PM 82.4 °F 28.4 °F 14% 29.81 in 10.0 mi WNW 21.9 mph 27.6 mph N/A   Clear
4:40 PM 80.6 °F 28.4 °F 15% 29.81 in 10.0 mi WNW 19.6 mph 27.6 mph N/A   Clear
5:00 PM 80.6 °F 26.6 °F 14% 29.81 in 10.0 mi West 19.6 mph - N/A   Clear
5:20 PM 78.8 °F 24.8 °F 14% 29.81 in 10.0 mi WNW 18.4 mph 26.5 mph N/A   Clear
5:40 PM 78.8 °F 23.0 °F 13% 29.81 in 10.0 mi West 17.3 mph 26.5 mph N/A   Clear
6:00 PM 78.8 °F 24.8 °F 14% 29.81 in 10.0 mi West 18.4 mph 25.3 mph N/A   Clear
6:20 PM 77.0 °F 26.6 °F 16% 29.81 in 10.0 mi WNW 16.1 mph 23.0 mph N/A   Clear
6:40 PM 77.0 °F 26.6 °F 16% 29.80 in 10.0 mi West 17.3 mph - N/A   Clear
7:00 PM 75.2 °F 26.6 °F 17% 29.80 in 10.0 mi West 16.1 mph - N/A   Clear
7:20 PM 73.4 °F 26.6 °F 18% 29.80 in 10.0 mi West 15.0 mph - N/A   Clear
7:40 PM 71.6 °F 24.8 °F 17% 29.80 in 10.0 mi West 15.0 mph - N/A   Clear
8:00 PM 71.6 °F 24.8 °F 17% 29.81 in 10.0 mi West 12.7 mph 20.7 mph N/A   Clear
8:20 PM 69.8 °F 24.8 °F 18% 29.81 in 10.0 mi WSW 10.4 mph 17.3 mph N/A   Clear
8:40 PM 68.0 °F 37.4 °F 33% 29.81 in 10.0 mi SSW 11.5 mph - N/A   Clear
9:00 PM 68.0 °F 35.6 °F 30% 29.82 in 10.0 mi SW 10.4 mph 18.4 mph N/A   Clear
9:20 PM 66.2 °F 35.6 °F 32% 29.82 in 10.0 mi WSW 13.8 mph - N/A   Clear
9:40 PM 66.2 °F 33.8 °F 30% 29.82 in 10.0 mi WSW 8.1 mph - N/A   Clear
10:00 PM 66.2 °F 30.2 °F 26% 29.82 in 10.0 mi SW 9.2 mph - N/A   Clear
10:20 PM 68.0 °F 28.4 °F 23% 29.82 in 10.0 mi SW 10.4 mph - N/A   Partly Cloudy
10:40 PM 68.0 °F 28.4 °F 23% 29.82 in 10.0 mi WSW 9.2 mph 18.4 mph N/A   Partly Cloudy
11:00 PM 68.0 °F 28.4 °F 23% 29.82 in 10.0 mi WSW 11.5 mph 18.4 mph N/A   Clear
11:20 PM 66.2 °F 28.4 °F 24% 29.82 in 10.0 mi WSW 11.5 mph 17.3 mph N/A   Clear
11:40 PM 62.6 °F 32.0 °F 32% 29.82 in 10.0 mi SW 11.5 mph - N/A   Clear